[[{"header":{"parameterUnit":"m.s-1","parameterCategory":1,"la1":30.2991,"la2":30.254,"lo1":-89.0895,"lo2":-89.0444,"dy":0.0017,"dx":0.0017,"nx":28,"ny":28,"refTime":"2023-09-19T03:00:00:Z","depth":0,"parameterNumber":2,"parameterNumberName":"U-component_of_WINDS"},"data":[0,0,0,0,0,0,0,0,0,0,0,0,0,0,0,0,0,0,0,0,0,0,0,0,0,0,0,0,0,0,0,0,0,0,0,0,0,0,0,0,0,0,0,0,0,0,0,0,0,0,0,0,0,0,0,0,0,0,-3.8633,-3.8633,0,-3.8695,-3.8695,-3.8696,-3.8656,-3.8654,-3.8653,-3.8651,-3.871,-3.8713,-3.8716,0,0,0,0,0,0,0,0,0,0,0,0,0,-3.8476,-3.8479,-3.8633,-3.8633,-3.8634,-3.8695,-3.8695,-3.8696,-3.8657,-3.8654,-3.8652,-3.865,-3.8709,-3.8713,-3.8717,0,0,0,0,0,0,0,0,0,0,0,0,0,-3.8542,-3.848,-3.8632,-3.8622,-3.8622,-3.8694,-3.8695,-3.8696,-3.8657,-3.8654,-3.8652,-3.8649,-3.8707,-3.8712,-3.8717,-3.8802,0,0,-3.8732,-3.8734,0,0,0,0,0,0,0,0,-3.8538,-3.8547,-3.8623,-3.8623,-3.8622,-3.8665,-3.8662,-3.8732,-3.8658,-3.8643,-3.8651,-3.8648,-3.8697,-3.8702,-3.872,-3.8805,-3.8808,-3.8733,-3.8736,-3.8738,-3.8739,0,0,0,0,0,0,0,-3.8534,-3.8545,-3.8657,-3.8624,-3.8624,-3.8613,-3.8619,-3.8675,-3.8685,-3.8644,-3.8642,-3.865,-3.8696,-3.8715,-3.8721,-3.8809,-3.8732,-3.8737,-3.874,-3.8742,-3.8967,-3.897,0,0,0,0,0,0,-3.853,-3.8541,-3.8655,-3.8659,-3.8573,-3.8618,-3.8625,-3.8654,-3.8684,-3.8686,-3.8652,-3.8648,-3.8708,-3.8715,-3.8723,-3.8824,-3.8738,-3.8742,-3.8745,-3.8964,-3.8968,-3.8971,0,0,0,0,0,0,-3.8527,-3.8541,-3.8652,-3.8599,-3.8613,-3.8624,-3.8657,-3.8657,-3.8676,-3.869,-3.8691,-3.867,-3.8706,-3.8716,-3.8783,-3.8826,-3.8744,-3.8749,-3.8961,-3.8965,-3.897,-3.9028,0,0,0,0,0,0,-3.8523,-3.854,-3.8573,-3.86,-3.8616,-3.8713,-3.8659,-3.866,-3.8685,-3.868,-3.8707,-3.8709,-3.8705,-3.8776,-3.8788,-3.8831,-3.8753,-3.8957,-3.8963,-3.8968,-3.9023,-3.9034,-3.9044,0,0,0,0,0,-3.8518,-3.8586,-3.8575,-3.8589,-3.8658,-3.8715,-3.8724,-3.872,-3.8689,-3.8721,-3.8731,-3.8708,-3.882,-3.8784,-3.8797,-3.8842,-3.8954,-3.8961,-3.8968,-3.9018,-3.9032,-3.9044,0,0,0,0,0,0,-3.8561,-3.8589,-3.8577,-3.8657,-3.8685,-3.8709,-3.875,-3.8735,-3.877,-3.8763,-3.8755,-3.8762,-3.8832,-3.8844,-3.8803,-3.8926,-3.8882,-3.8892,-3.8915,-3.8929,-3.894,-3.8934,-3.8757,0,0,0,0,0,-3.8581,-3.8627,-3.8648,-3.8717,-3.8731,-3.8739,-3.8763,-3.8758,-3.8785,-3.8796,-3.881,-3.8836,-3.8877,-3.8904,-3.8943,-3.9025,-3.903,-3.9063,-3.9074,-3.9083,-3.909,-3.9134,-3.9149,-3.8994,-3.8994,-3.8994,0,0,-3.862,-3.8641,-3.867,-3.8726,-3.8746,-3.8793,-3.8748,-3.8799,-3.8833,-3.8803,-3.8868,-3.888,-3.8908,-3.8983,-3.9017,-3.8995,-3.9135,-3.9091,-3.9098,-3.9101,-3.9143,-3.9158,-3.9171,-3.8998,-3.8998,-3.8997,0,0,-3.8715,-3.8737,-3.8796,-3.8818,-3.8851,-3.8856,-3.887,-3.8898,-3.8905,-3.897,-3.8949,-3.8989,-3.906,-3.9081,-3.9101,-3.9208,-3.9188,-3.9221,-3.9277,-3.932,-3.9332,-3.9343,-3.938,-3.9393,-3.9229,-3.923,-3.923,0,-3.8759,-3.883,-3.8828,-3.8881,-3.8906,-3.8884,-3.8943,-3.8964,-3.9007,-3.9024,-3.9,-3.909,-3.9107,-3.9187,-3.9214,-3.9231,-3.9246,-3.9216,-3.9331,-3.9342,-3.9352,-3.9387,-3.9401,-3.9233,-3.9233,-3.9232,-3.9232,0,-3.8882,-3.8932,-3.8976,-3.902,-3.905,-3.9106,-3.9111,-3.9142,-3.9135,-3.9142,-3.9209,-3.923,-3.9273,-3.9292,-3.9285,-3.9371,-3.9357,-3.9332,-3.9287,-3.937,-3.9403,-3.9416,-3.9238,-3.9237,-3.9236,-3.9235,0,0,-3.9003,-3.9048,-3.9064,-3.9084,-3.912,-3.9157,-3.9213,-3.9257,-3.9282,-3.9314,-3.9359,-3.9421,-3.9399,-3.9422,-3.9418,-3.9456,-3.9538,-3.9426,-3.9427,-3.9445,-3.9633,-3.965,-3.9665,-3.9526,-3.9529,-3.9531,-3.963,0,-3.9099,-3.9197,-3.9198,-3.9287,-3.9333,-3.9314,-3.9362,-3.9389,-3.9398,-3.9437,-3.9446,-3.949,-3.9459,-3.9472,-3.951,-3.952,-3.9575,-3.9513,-3.9566,-3.9568,-3.9557,-3.9683,-3.97,-3.9792,-3.9643,-3.9645,-3.9647,0,-3.9223,-3.9261,-3.9356,-3.9386,-3.9405,-3.9449,-3.9489,-3.9528,-3.9558,-3.9562,-3.9589,-3.9579,-3.9634,-3.9591,-3.9666,-3.9624,-3.9646,-3.9655,-3.9658,-3.9661,-3.961,-3.9686,-3.9822,-3.9835,-3.9667,-3.9666,-3.9664,0,-3.93,-3.9374,-3.9441,-3.9459,-3.9497,-3.9527,-3.9544,-3.9572,-3.9599,-3.9634,-3.9651,-3.9693,-3.9714,-3.9746,-3.9747,-3.9715,-3.9823,-3.9779,-3.9826,-3.9826,-3.9847,-3.9845,-3.9986,-3.9866,-3.9866,-3.9866,-3.9865,0,-3.9405,-3.9463,-3.9476,-3.9516,-3.9581,-3.9582,-3.9645,-3.9659,-3.9685,-3.9727,-3.9714,-3.9753,-3.9754,-3.9794,-3.9796,-3.9857,-3.9868,-3.9871,-3.987,-3.9871,-3.987,-3.9883,-3.9876,-3.9869,-3.9868,-3.9868,-3.9867,0,-3.95,-3.9511,-3.9582,-3.9613,-3.9623,-3.9669,-3.9695,-3.9733,-3.9743,-3.9796,-3.9808,-3.9822,-3.9869,-3.9875,-3.9929,-3.993,-4.0004,-3.9997,-3.9994,-3.9992,-4.0038,-4.0033,-4.0189,-4.0209,-4.0079,-4.008,-4.0081,0,-3.9565,-3.961,-3.9647,-3.9676,-3.9695,-3.974,-3.9768,-3.9772,-3.9801,-3.984,-3.9874,-3.992,-3.9956,-4.0032,-4.0046,-4.0087,-4.008,-4.0133,-4.0086,-4.0085,-4.0079,-4.0075,-4.0079,-4.014,-4.0142,-4.0143,-4.0144,0,-3.9679,-3.9683,-3.9725,-3.977,-3.9804,-3.9839,-3.9871,-3.9895,-3.9902,-3.9936,-3.9985,-4.0014,-4.0071,-4.0116,-4.0157,-4.0173,-4.0159,-4.0159,-4.0172,-4.0171,-4.0167,-4.0168,-4.0016,-4.0155,-4.0154,-4.0153,-4.0152,-4.0152,-3.9759,-3.9798,-3.9831,-3.9879,-3.9904,-3.9936,-3.9973,-3.9989,-4.0031,-4.0078,-4.0078,-4.0131,-4.0161,-4.0216,-4.0235,-4.0276,-4.0259,-4.0277,-4.0282,-4.0286,-4.0289,-4.0163,-4.0284,-4.0284,-4.0284,-4.0283,-4.0283,0,-3.987,-3.9892,-3.9936,-3.9983,-4.0021,-4.0008,-4.0044,-4.0076,-4.0124,-4.0154,-4.0191,-4.0248,-4.0293,-4.0312,-4.0355,-4.0384,-4.0379,-4.0395,-4.0392,-4.0395,-4.0303,-4.0287,-4.0399,-4.0399,-4.0399,-4.0399,-4.0399,-4.0399,-3.9932,-3.9998,-4.0007,-4.0085,-4.0105,-4.0159,-4.0181,-4.0209,-4.0234,-4.0298,-4.0336,-4.0349,-4.0375,-4.0421,-4.0461,-4.0465,-4.0481,-4.05,-4.0501,-4.0414,-4.0402,-4.0391,-4.0375,-4.0504,-4.0504,-4.0589,-4.059,-4.059]},{"header":{"parameterUnit":"m.s-1","parameterCategory":1,"la1":30.2991,"la2":30.254,"lo1":-89.0895,"lo2":-89.0444,"dy":0.0017,"dx":0.0017,"nx":28,"ny":28,"refTime":"2023-09-19T03:00:00:Z","depth":0,"parameterNumber":3,"parameterNumberName":"V-component_of_WINDS"},"data":[0,0,0,0,0,0,0,0,0,0,0,0,0,0,0,0,0,0,0,0,0,0,0,0,0,0,0,0,0,0,0,0,0,0,0,0,0,0,0,0,0,0,0,0,0,0,0,0,0,0,0,0,0,0,0,0,0,0,-0.0595,-0.0595,0,-0.0593,-0.0593,-0.0593,-0.0539,-0.0537,-0.0536,-0.0535,-0.0535,-0.0537,-0.0538,0,0,0,0,0,0,0,0,0,0,0,0,0,-0.0553,-0.0554,-0.0595,-0.0595,-0.0595,-0.0593,-0.0593,-0.0593,-0.0539,-0.0537,-0.0536,-0.0534,-0.0535,-0.0537,-0.0538,0,0,0,0,0,0,0,0,0,0,0,0,0,-0.0563,-0.0555,-0.0595,-0.0568,-0.0565,-0.0593,-0.0593,-0.0593,-0.0539,-0.0537,-0.0535,-0.0533,-0.0534,-0.0536,-0.0538,-0.0593,0,0,-0.0545,-0.0545,0,0,0,0,0,0,0,0,-0.0563,-0.0565,-0.0572,-0.0569,-0.0567,-0.0564,-0.0578,-0.0593,-0.054,-0.0549,-0.0535,-0.0532,-0.0547,-0.0548,-0.0552,-0.0593,-0.0593,-0.0545,-0.0546,-0.0547,-0.0547,0,0,0,0,0,0,0,-0.0562,-0.0565,-0.0594,-0.0572,-0.0569,-0.0556,-0.0555,-0.0581,-0.056,-0.0548,-0.0544,-0.0545,-0.0545,-0.055,-0.0552,-0.0593,-0.0545,-0.0546,-0.0548,-0.0548,-0.0677,-0.068,0,0,0,0,0,0,-0.0565,-0.0565,-0.0594,-0.0594,-0.056,-0.0558,-0.0557,-0.0567,-0.0559,-0.0556,-0.0546,-0.0542,-0.0548,-0.0549,-0.0551,-0.0614,-0.0547,-0.0549,-0.055,-0.0675,-0.0678,-0.068,0,0,0,0,0,0,-0.0564,-0.0568,-0.0594,-0.0578,-0.0581,-0.0561,-0.0573,-0.0568,-0.0573,-0.0558,-0.0554,-0.0555,-0.0546,-0.0549,-0.0583,-0.0613,-0.055,-0.0551,-0.0673,-0.0676,-0.0679,-0.0741,0,0,0,0,0,0,-0.0563,-0.0568,-0.0589,-0.0579,-0.0582,-0.0625,-0.0574,-0.057,-0.0576,-0.0571,-0.0566,-0.0563,-0.0545,-0.058,-0.0585,-0.0615,-0.0553,-0.067,-0.0674,-0.0678,-0.0736,-0.0746,-0.0754,0,0,0,0,0,-0.0562,-0.0607,-0.059,-0.0594,-0.0607,-0.0627,-0.0629,-0.0606,-0.0579,-0.06,-0.059,-0.0563,-0.0609,-0.0584,-0.0589,-0.062,-0.0668,-0.0673,-0.0678,-0.0732,-0.0744,-0.0754,0,0,0,0,0,0,-0.0623,-0.0605,-0.0586,-0.0629,-0.063,-0.0618,-0.0643,-0.062,-0.0629,-0.0624,-0.0596,-0.0595,-0.0634,-0.063,-0.0602,-0.0672,-0.0634,-0.064,-0.0673,-0.0684,-0.0693,-0.0694,-0.0555,0,0,0,0,0,-0.0641,-0.0658,-0.0642,-0.0682,-0.0683,-0.0663,-0.0671,-0.0654,-0.0654,-0.0654,-0.0647,-0.0648,-0.0663,-0.0673,-0.0686,-0.0735,-0.0733,-0.0759,-0.0768,-0.0775,-0.0781,-0.0806,-0.0817,-0.0697,-0.0697,-0.0697,0,0,-0.0679,-0.0671,-0.0684,-0.0694,-0.0692,-0.0711,-0.0664,-0.0686,-0.07,-0.0658,-0.0689,-0.0683,-0.0683,-0.0724,-0.0742,-0.0723,-0.0814,-0.0782,-0.0788,-0.079,-0.0812,-0.0824,-0.0834,-0.07,-0.07,-0.0699,0,0,-0.0758,-0.0754,-0.0786,-0.0785,-0.0782,-0.0768,-0.0776,-0.0767,-0.0761,-0.0792,-0.076,-0.0776,-0.0802,-0.0803,-0.0807,-0.0884,-0.086,-0.0889,-0.0937,-0.0962,-0.0971,-0.0979,-0.1007,-0.1017,-0.0895,-0.0895,-0.0895,0,-0.0806,-0.0832,-0.0806,-0.083,-0.0834,-0.0795,-0.0827,-0.0827,-0.083,-0.0834,-0.0812,-0.0843,-0.084,-0.088,-0.0899,-0.0903,-0.0911,-0.089,-0.0972,-0.098,-0.0987,-0.1013,-0.1023,-0.0898,-0.0898,-0.0898,-0.0897,0,-0.0891,-0.091,-0.0936,-0.0938,-0.0945,-0.0974,-0.0951,-0.0962,-0.0943,-0.0932,-0.0963,-0.0958,-0.0968,-0.0977,-0.0959,-0.1014,-0.1002,-0.0976,-0.0937,-0.1002,-0.1026,-0.1036,-0.0904,-0.0902,-0.0901,-0.09,0,0,-0.101,-0.0995,-0.1005,-0.1004,-0.0998,-0.1012,-0.1038,-0.1047,-0.1057,-0.1059,-0.108,-0.1102,-0.1077,-0.1082,-0.1064,-0.1085,-0.1146,-0.1056,-0.1056,-0.1073,-0.1206,-0.1226,-0.1237,-0.1129,-0.1131,-0.1132,-0.1206,0,-0.1086,-0.1129,-0.1104,-0.1151,-0.1168,-0.1129,-0.1152,-0.115,-0.114,-0.1153,-0.1141,-0.1157,-0.1124,-0.1126,-0.1145,-0.1135,-0.1172,-0.1129,-0.1149,-0.115,-0.1151,-0.125,-0.1271,-0.1341,-0.1215,-0.1216,-0.1217,0,-0.1181,-0.1186,-0.1234,-0.1222,-0.1228,-0.1249,-0.1254,-0.1267,-0.1264,-0.1255,-0.1259,-0.1235,-0.126,-0.1221,-0.1254,-0.1225,-0.1232,-0.1228,-0.123,-0.1231,-0.1188,-0.1254,-0.1362,-0.1373,-0.1232,-0.1231,-0.123,0,-0.1263,-0.1281,-0.1311,-0.1312,-0.13,-0.1315,-0.1311,-0.1306,-0.1312,-0.1317,-0.1321,-0.1329,-0.1334,-0.1341,-0.132,-0.1293,-0.1356,-0.1315,-0.135,-0.135,-0.1365,-0.1365,-0.1476,-0.1369,-0.1369,-0.1369,-0.1369,0,-0.1351,-0.1381,-0.1348,-0.1367,-0.1399,-0.1371,-0.1404,-0.1396,-0.1392,-0.1408,-0.1376,-0.1392,-0.1364,-0.1377,-0.1361,-0.1391,-0.1394,-0.1387,-0.1383,-0.139,-0.1391,-0.1395,-0.139,-0.1372,-0.1371,-0.1371,-0.137,0,-0.1448,-0.1427,-0.1457,-0.1442,-0.1439,-0.1464,-0.1451,-0.1468,-0.1454,-0.1476,-0.1479,-0.1458,-0.1472,-0.1452,-0.1465,-0.1454,-0.1495,-0.1483,-0.1496,-0.1492,-0.1527,-0.1525,-0.1646,-0.166,-0.1544,-0.1545,-0.1546,0,-0.1506,-0.1528,-0.1514,-0.1522,-0.1519,-0.1533,-0.1539,-0.1511,-0.1519,-0.1516,-0.1534,-0.1545,-0.1552,-0.1577,-0.1563,-0.1572,-0.156,-0.1602,-0.1562,-0.1568,-0.1561,-0.156,-0.1562,-0.1611,-0.1612,-0.1613,-0.1614,0,-0.161,-0.1598,-0.1607,-0.1612,-0.1619,-0.1622,-0.1623,-0.1631,-0.1602,-0.1612,-0.1626,-0.1631,-0.1643,-0.1654,-0.166,-0.1655,-0.1631,-0.1627,-0.1635,-0.1644,-0.165,-0.1647,-0.1518,-0.1624,-0.1623,-0.1623,-0.1622,-0.1622,-0.1689,-0.1707,-0.1699,-0.171,-0.1707,-0.1708,-0.1723,-0.171,-0.172,-0.1727,-0.171,-0.1727,-0.1723,-0.1727,-0.1725,-0.1739,-0.172,-0.1733,-0.1736,-0.1739,-0.1745,-0.1647,-0.1739,-0.1739,-0.1739,-0.1739,-0.1738,0,-0.1792,-0.1785,-0.1795,-0.1795,-0.1804,-0.1777,-0.1776,-0.1785,-0.18,-0.1798,-0.1805,-0.182,-0.183,-0.1817,-0.1825,-0.1838,-0.1827,-0.1841,-0.184,-0.184,-0.1761,-0.1752,-0.185,-0.185,-0.185,-0.185,-0.185,-0.185,-0.1846,-0.1874,-0.1861,-0.1887,-0.1879,-0.1895,-0.1896,-0.1897,-0.1894,-0.1912,-0.192,-0.191,-0.1903,-0.191,-0.1919,-0.1914,-0.1919,-0.1938,-0.193,-0.1856,-0.1845,-0.1835,-0.1827,-0.1939,-0.1939,-0.2007,-0.2008,-0.2009]}]]